Flag for U.S.A. Weather past 2 weeks in Independence, Missouri, U.S.A.

Now
31 °F

Passing clouds.


Feels Like: 19 °F
Forecast: 20 / 28 °F
Wind: 17 mph from North

Location: Lee's Summit Municipal Airport

Current Time: Mar 3, 2015 at 11:24:57 PM

Latest Report: Mar 3, 2015 at 10:53 PM


Visibility: 10 mi

Pressure: 30.00 "Hg

Humidity: 76%

Dew point: 24 °F

Location of IndependenceLocation

Historic Weather in Independence — Graph

°F

Independence temperature yesterday

Maximum temperature yesterday: 37 °F (at 1:53 PM)
Minimum temperature yesterday: 23 °F (at 1:53 AM)
Average temperature yesterday: 31 °F

Past Weeks' High & Low Weather Summary

 TemperatureHumidityPressure
High52 °F (Feb 25, 2:53 PM)97% (Mar 3, 8:01 AM)30.81 "Hg (Mar 3, 8:01 AM)
Low2 °F (Feb 27, 4:53 AM)28% (Feb 23, 3:53 PM)29.71 "Hg (Mar 3, 8:01 AM)
Average24 °F65%30.29 "Hg
* Reported Feb 16 9:53 PM — Mar 3 9:53 PM, Independence, Weather by CustomWeather, © 2015

Note: Actual official high and low records may vary slightly from our data, if they occured in-between our weather recording intervals... More about our weather records

Advertising

Independence weather history for previous 24 hours

 ConditionsComfort  
Time TempWeatherWind HumidityBarometerVisibility
9:53 PM
Tue, Mar 3
33 °FOvercast.12 mph75%29.99 "Hg10 mi
8:53 PM34 °FOvercast.10 mph76%29.98 "Hg10 mi
8:04 PM36 °FMostly cloudy.16 mph73%29.95 "Hg10 mi
7:53 PM36 °FOvercast.17 mph73%29.95 "Hg10 mi
6:53 PM38 °FOvercast.9 mph70%29.95 "Hg9 mi
5:53 PM38 °FPassing clouds.9 mph70%29.92 "Hg10 mi
5:01 PM40 °FScattered clouds.12 mph68%29.88 "Hg9 mi
3:53 PM42 °FOvercast.16 mph68%29.85 "Hg9 mi
2:53 PM42 °FOvercast.14 mph73%29.85 "Hg9 mi
1:53 PM45 °FOvercast.17 mph71%29.80 "Hg10 mi
12:53 PM46 °FOvercast.12 mph77%29.81 "Hg10 mi
11:53 AM45 °FMore clouds than sun.14 mph80%29.80 "Hg10 mi
10:53 AM42 °FOvercast.16 mph89%29.79 "Hg9 mi
9:53 AM41 °FLow clouds.17 mph89%29.77 "Hg8 mi
8:53 AM40 °FFog.21 mph93%29.75 "Hg6 mi
8:01 AM38 °FFog.20 mph97%29.71 "Hg3 mi
6:53 AM37 °FFog.18 mph96%29.76 "Hg2 mi
5:53 AM35 °FFog.16 mph96%29.76 "Hg3 mi
4:53 AM34 °FFog.18 mph92%29.78 "Hg5 mi
3:53 AM34 °FFog.12 mph92%29.83 "Hg3 mi
2:53 AM33 °FFog.12 mph92%29.90 "Hg3 mi
1:53 AM33 °FFog.9 mph88%29.95 "Hg5 mi
12:53 AM33 °FOvercast.10 mph85%29.99 "Hg7 mi
11:53 PM
Mon, Mar 2
34 °FOvercast.13 mph73%30.03 "Hg10 mi
Weather by CustomWeather, © 2015

See weather overviewHow to use our weather pages